061  
ASUS43 KDMX 191206  
RWRIA  
 
WEATHER ROUNDUP FOR IOWA  
NATIONAL WEATHER SERVICE DES MOINES IA  
700 AM CDT FRI APR 19 2019  
 
NOTE: "FAIR" INDICATES FEW OR NO CLOUDS BELOW 12,000 FEET WITH NO  
SIGNIFICANT WEATHER AND/OR S TO VISIBILITY
.  
 
* - THESE STATIONS ARE NOT NWS STATIONS...THUS NOT UNDER NWS  
QUALITY CONTROL. THEY ALSO DO NOT REPORT WEATHER SUCH  
AS PRECIPITATION OR FOG.
 
 
IAZ001>003-012>014-020>022-031>034-043>046-191300-  
NORTHWEST IOWA  
 
CITY SKY/WX TMP DP RH WIND PRES REMARKS
 
CARROLL * CLEAR 37 36 93 N6 30.05S WCI 33  
CHEROKEE * CLEAR 32 32 100 NE5 30.08R WCI 27  
DENISON * CLEAR 32 32 100 CALM 30.08S  
LE MARS * PTCLDY 30 30 100 CALM 30.10R  
SHELDON * PTCLDY 30 30 100 CALM 30.07R  
SIOUX CITY PTCLDY 34 32 92 NW9 30.10R WCI 27  
6HR MIN TEMP: 30; 6HR MAX TEMP: 40;  
 
SPENCER CLEAR 35 31 85 NW3 30.06R  
6HR MIN TEMP: 31; 6HR MAX TEMP: 41;  
 
STORM LAKE * CLEAR 34 34 100 N8 30.03R WCI 27  

 
 
IAZ055>058-069>071-079>083-090>094-191300-  
SOUTHWEST IOWA  
 
CITY SKY/WX TMP DP RH WIND PRES REMARKS
 
ATLANTIC * CLEAR 36 36 100 VRB3 30.06R  
AUDUBON * CLEAR 36 32 87 CALM 30.06R  
CLARINDA * CLEAR 37 36 93 N9 30.07R WCI 31  
COUNCIL BLFS * CLEAR 37 37 100 N6 30.06S WCI 33  
CRESTON * CLEAR 39 39 100 N9 30.03R WCI 33  
HARLAN * CLEAR 36 34 93 N6 30.06S WCI 31  
LAMONI CLEAR 40 36 86 N10 29.99R WCI 33  
6HR MIN TEMP: 40; 6HR MAX TEMP: 45;  
 
RED OAK * CLEAR 36 36 100 N7 30.07R WCI 30  
SHENANDOAH * CLEAR 39 37 93 N8 30.06R WCI 34  

 
 
IAZ047>049-059>061-072>074-084-191300-  
CENTRAL IOWA  
 
CITY SKY/WX TMP DP RH WIND PRES REMARKS
 
AMES CLEAR 38 34 85 N10 30.03R WCI 31  
6HR MIN TEMP: 36; 6HR MAX TEMP: 43;  
 
ANKENY * PTCLDY 39 36 87 N9 30.04R WCI 33  
BOONE * CLEAR 37 37 100 N12 30.03R WCI 30  
CHARITON * CLEAR 39 37 93 N10 29.99R WCI 32  
DES MOINES PTCLDY 40 35 83 N7 30.03R  
6HR MIN TEMP: 39; 6HR MAX TEMP: 45;  
 
GRINNELL* CLEAR 37 35 90 N12 30.00R WCI 30  
KNOXVILLE * CLEAR 41 41 100 N14 29.99R  
MARSHALLTOWN CLEAR 36 35 96 N8 30.01R WCI 30  
6HR MIN TEMP: 33; 6HR MAX TEMP: 40;  
 
NEWTON * CLEAR 39 37 93 N13 30.00R WCI 32  
PELLA * PTCLDY 37 35 90 N7 30.00R WCI 32  
PERRY * FAIR 36 36 99 NW7 30.04R WCI 30  

 
 
IAZ004>006-015-016-023>025-035-036-191300-  
NORTH CENTRAL IOWA  
 
CITY SKY/WX TMP DP RH WIND PRES REMARKS
 
ALGONA * CLEAR 34 34 100 NW6 30.04S WCI 29  
CLARION * CLEAR 34 34 100 NW6 30.05R WCI 29  
ESTHERVILLE CLEAR 32 31 96 NW7 30.05R WCI 26  
6HR MIN TEMP: 32; 6HR MAX TEMP: 36;  
 
FORT DODGE * CLEAR 35 33 92 N6 30.05R WCI 30  
MASON CITY CLEAR 32 32 100 NW7 30.04R WCI 26  
6HR MIN TEMP: 32; 6HR MAX TEMP: 37;  
 
FOREST CITY * FAIR 36 36 100 CALM 30.04S  
IOWA FALLS * FAIR 37 35 92 NW9 30.04R WCI 31  

 
 
IAZ007>011-017>019-026>030-037>042-050>054-066-191300-  
NORTHEAST IOWA  
 
CITY SKY/WX TMP DP RH WIND PRES REMARKS
 
CEDAR RAPIDS FAIR 39 35 86 N17 29.95R WCI 30  
6HR MIN TEMP: 38; 6HR MAX TEMP: 42;  
 
CHARLES CITY * FAIR 36 34 93 N9 30.03R WCI 29  
CLINTON * FAIR 41 35 79 N14 29.91R  
DECORAH * FAIR 37 34 87 N8 29.99R WCI 31  
DUBUQUE FAIR 39 34 82 N17 29.93R WCI 30  
6HR MIN TEMP: 38; 6HR MAX TEMP: 42;  
 
MONTICELLO * FAIR 39 37 93 N12 29.95R WCI 32  
OELWEIN * FAIR 37 37 100 N12 30.00R WCI 30  
WATERLOO FAIR 39 35 86 N12 30.01R WCI 32  
6HR MIN TEMP: 37; 6HR MAX TEMP: 42;  
 

 
 
IAZ064-065-067-068-078-191300-  
EAST CENTRAL IOWA  
 
CITY SKY/WX TMP DP RH WIND PRES REMARKS
 
DAVENPORT FAIR 42 35 76 N15 29.91R  
6HR MIN TEMP: 42; 6HR MAX TEMP: 45;  
 
IOWA CITY MOCLDY 42 36 79 N15G23 29.96R  
6HR MIN TEMP: 42; 6HR MAX TEMP: 46;  
 
MT. PLEASANT * CLOUDY 43 37 81 N14 29.93R  
MUSCATINE * CLOUDY 45 36 70 N12 29.93R  
QUAD CITIES FAIR 44 36 73 N12 29.88R  
6HR MIN TEMP: 44; 6HR MAX TEMP: 48;  
 

 
 
IAZ062-063-075>077-085>089-095>099-191300-  
SOUTHEAST IOWA  
 
CITY SKY/WX TMP DP RH WIND PRES REMARKS
 
BURLINGTON CLOUDY 43 35 73 N15 29.90R  
6HR MIN TEMP: 43; 6HR MAX TEMP: 47;  
 
FAIRFIELD * CLEAR 41 36 81 N14 29.94R  
FORT MADISON * CLOUDY 43 37 81 N13G20 29.91R  
KEOKUK * CLOUDY 45 37 76 N10G16 29.90R  
OSKALOOSA * FAIR 39 35 86 N15 29.97R WCI 31  
CENTERVILLE * FAIR 39 37 93 NW15 29.97R WCI 31  
OTTUMWA CLEAR 39 35 86 N13 29.96R WCI 31  
6HR MIN TEMP: 38; 6HR MAX TEMP: 42;  
 
WASHINGTON * CLOUDY 39 39 100 N13 29.95R WCI 32  

 
 
ABBREVIATIONS USED IN REMARKS  
TC - TEMPERATURES IN CELSIUS  
WCI - WIND CHILL INDEX  
HX - HEAT INDEX  
VSB - VISIBILITY  

 
 
 
 
CLICK HERE TO GO TO PREVIOUS BULLETINS.

The Nexlab IA Page Main Text Page